Back to catalog

INMARSAT 4-F1

AliveCommunicationsGEO
NORAD 28628·PAYLOAD·🇮🇲 IM

Launched Mar 11, 2005 from Cape Canaveral Space Force Station

Loading…

TLE

FreshSource: Space-Track

Epoch: Sep 14, 2026, 15:37 UTC

1 28628U 05009A   26257.65121382  .00000027  00000-0  00000-0 0  9999
2 28628   5.2928  42.8154 0002507 137.0402 226.3326  1.00273328 78576

Track INMARSAT 4-F1 in real time with AllMySat

Download on the App Store